Farmington, MO

6:31 AM CST on December 11, 2019 (GMT -0600)
Farmington Regional

Weather History for KFAM - October, 2019

Change the Weather History Date:

Monday, October 28, 2019

  Actual Average Record
Temperature  
Mean Temperature 56 °F -  
Max Temperature 59 °F 62 °F 82 °F (1999)
Min Temperature 52 °F 44 °F 26 °F (2001)
Degree Days  
Heating Degree Days 10    
Growing Degree Days 6 (Base 50)    
Moisture  
Dew Point 52 °F    
Average Humidity 90    
Maximum Humidity 97    
Minimum Humidity 78    
Precipitation  
Precipitation 0.00 in - - ()
Sea Level Pressure  
Sea Level Pressure 30.07 in    
Wind  
Wind Speed 8 mph (South)    
Max Wind Speed 13 mph    
Max Gust Speed 18 mph    
Visibility 10 miles    
Events Rain    
Averages and records for this station are not official NWS values.
T = Trace of Precipitation, MM = Missing Value Source: NWS Daily Summary

Daily Weather History Graph

Daily Weather History Graph

Search for Another Location

Airport or City:

Astronomy

Oct. 28, 2019 Rise Set
Actual Time 7:22 AM CDT 6:07 PM CDT
Civil Twilight 6:55 AM CDT 6:34 PM CDT
Nautical Twilight 6:24 AM CDT 7:05 PM CDT
Astronomical Twilight 5:54 AM CDT 7:35 PM CDT
Moon 7:44 AM CDT (10/28) 6:53 PM CDT (10/28)
Length of Visible Light 11h 38m
Length of Day
10h 45m
New Moon, 0% of the Moon is Illuminated
Oct 28
New Moon
Nov 4
First Quarter
Nov 12
Full
Nov 19
Last Quarter
Nov 26
New

Hourly Weather History & Observations

Time (CDT) Temp. Dew Point Humidity Pressure Visibility Wind Dir Wind Speed Gust Speed Precip Events Conditions
12:56 AM 52.0 °F 51.1 °F 97% 30.06 in 10.0 mi South 12.7 mph - N/A   Overcast
1:56 AM 52.0 °F 51.1 °F 97% 30.06 in 10.0 mi SSW 11.5 mph - N/A   Overcast
2:56 AM 53.1 °F 51.1 °F 93% 30.07 in 10.0 mi SW 9.2 mph - N/A   Overcast
3:47 AM 53.6 °F 51.8 °F 94% 30.05 in 10.0 mi SW 8.1 mph - N/A   Overcast
3:56 AM 53.1 °F 51.1 °F 93% 30.09 in 10.0 mi SW 6.9 mph - N/A   Overcast
4:56 AM 53.1 °F 51.1 °F 93% 30.08 in 10.0 mi SSW 4.6 mph - N/A   Overcast
5:56 AM 53.1 °F 51.1 °F 93% 30.10 in 10.0 mi Calm Calm - N/A   Overcast
6:56 AM 53.1 °F 51.1 °F 93% 30.10 in 10.0 mi Calm Calm - N/A   Overcast
7:56 AM 53.1 °F 52.0 °F 96% 30.11 in 10.0 mi Calm Calm - N/A   Overcast
8:56 AM 54.0 °F 52.0 °F 93% 30.12 in 10.0 mi Calm Calm - N/A   Overcast
9:14 AM 53.6 °F 51.8 °F 94% 30.09 in 10.0 mi South 3.5 mph - N/A   Overcast
9:56 AM 55.0 °F 52.0 °F 89% 30.12 in 10.0 mi South 3.5 mph - N/A   Overcast
10:56 AM 57.0 °F 52.0 °F 83% 30.11 in 10.0 mi SE 6.9 mph - N/A   Overcast
11:56 AM 57.9 °F 52.0 °F 81% 30.10 in 10.0 mi SSE 5.8 mph - N/A   Overcast
12:56 PM 57.9 °F 52.0 °F 81% 30.09 in 10.0 mi South 4.6 mph - N/A   Overcast
1:56 PM 59.0 °F 52.0 °F 78% 30.07 in 10.0 mi SSW 4.6 mph - N/A   Overcast
2:56 PM 59.0 °F 52.0 °F 78% 30.06 in 10.0 mi South 8.1 mph - N/A   Overcast
3:56 PM 59.0 °F 52.0 °F 78% 30.05 in 10.0 mi South 8.1 mph - N/A   Overcast
4:22 PM 57.2 °F 51.8 °F 82% 30.03 in 10.0 mi SSE 9.2 mph - N/A   Overcast
4:56 PM 57.9 °F 52.0 °F 81% 30.05 in 10.0 mi SSE 9.2 mph - N/A   Overcast
5:56 PM 57.0 °F 51.1 °F 81% 30.05 in 10.0 mi SSE 8.1 mph - N/A   Overcast
6:56 PM 54.0 °F 50.0 °F 86% 30.04 in 10.0 mi SE 5.8 mph - N/A   Clear
7:56 PM 52.0 °F 50.0 °F 93% 30.05 in 10.0 mi SSE 4.6 mph - N/A   Clear
8:56 PM 52.0 °F 51.1 °F 97% 30.06 in 10.0 mi South 8.1 mph - N/A   Mostly Cloudy
9:45 PM 53.6 °F 51.8 °F 94% 30.06 in 10.0 mi South 6.9 mph - N/A   Overcast
9:56 PM 54.0 °F 52.0 °F 93% 30.08 in 10.0 mi South 10.4 mph - N/A   Overcast
10:16 PM 53.6 °F 51.8 °F 94% 30.05 in 10.0 mi South 11.5 mph - N/A   Overcast
10:27 PM 53.6 °F 51.8 °F 94% 30.04 in 9.0 mi SSE 11.5 mph - 0.00 in Rain Light Rain
10:44 PM 53.6 °F 51.8 °F 94% 30.02 in 10.0 mi SSE 10.4 mph - 0.00 in   Overcast
10:53 PM 53.6 °F 51.8 °F 94% 30.03 in 10.0 mi South 9.2 mph - 0.00 in   Mostly Cloudy
10:56 PM 53.1 °F 52.0 °F 96% 30.06 in 10.0 mi South 11.5 mph - 0.00 in   Overcast
11:56 PM 53.1 °F 52.0 °F 96% 30.05 in 10.0 mi South 9.2 mph 18.4 mph N/A   Overcast